Location: Appleton
(44.2618°N, 88.4157°W)
Time: 17:20:37
(UTC+00:00)

Tiros 1 despin weight - Visible Passes

Search period start: 17 May 2021 00:00
Search period end: 27 May 2021 00:00
Orbit: 593 x 642 km, 48.2° (Epoch: 16 May)

Date Brightness Start Highest point End Pass type
(mag) Time Alt. Az. Time Alt. Az. Time Alt. Az.
17 May ? 02:20:37 10° W 02:25:15 62° NNW 02:29:55 10° ENE visible
17 May ? 04:02:38 10° WNW 04:07:15 55° N 04:10:05 22° ENE visible
17 May ? 05:44:19 10° WNW 05:47:06 35° WNW 05:47:06 35° WNW visible
18 May ? 02:37:08 10° W 02:41:43 53° N 02:46:19 10° ENE visible
18 May ? 04:19:02 10° WNW 04:23:42 66° NNE 04:25:12 41° E visible
18 May ? 06:00:44 10° WNW 06:02:13 19° W 06:02:13 19° W visible
19 May ? 02:53:38 10° WNW 02:58:13 52° N 03:02:49 10° E visible
19 May ? 04:35:23 10° WNW 04:40:06 88° NNE 04:40:21 80° E visible
19 May ? 06:17:22 10° W 06:17:22 10° W 06:17:22 10° W visible
20 May ? 03:10:04 10° WNW 03:14:42 58° N 03:18:31 15° E visible
20 May ? 04:51:44 10° WNW 04:55:32 52° WSW 04:55:32 52° WSW visible
21 May ? 01:44:37 10° W 01:49:11 52° N 01:53:46 10° ENE visible
21 May ? 03:26:27 10° WNW 03:31:08 73° NNE 03:33:44 26° E visible
21 May ? 05:08:13 10° WNW 05:10:45 27° W 05:10:45 27° W visible
22 May ? 02:01:06 10° WNW 02:05:41 53° N 02:10:18 10° E visible
22 May ? 03:42:47 10° WNW 03:47:29 80° SSW 03:48:58 43° SE visible
22 May ? 05:25:01 10° W 05:25:59 14° W 05:25:59 14° W visible
23 May ? 02:17:30 10° WNW 02:22:09 63° NNE 02:26:49 10° E visible
23 May ? 03:59:11 10° WNW 04:03:43 51° SSW 04:04:15 48° S visible
24 May ? 02:33:51 10° WNW 02:38:32 83° NNE 02:42:31 14° ESE visible
24 May ? 04:15:45 10° W 04:19:33 30° SW 04:19:33 30° SW visible
25 May ? 02:50:12 10° WNW 02:54:51 67° SSW 02:57:52 21° SE visible
25 May ? 04:32:48 10° W 04:34:53 16° WSW 04:34:53 16° WSW visible
26 May ? 03:06:39 10° WNW 03:11:02 41° SW 03:13:15 25° SSE visible
